Regional Weather Roundup
Issued by NWS

Home | Current Version | Previous Version | Graphics & Text | Print | Product List | Glossary On
Versions: 1 2 3 4 5 6 7 8 9 10 11 12 13 14 15 16 17 18 19 20 21 22 23 24 25 26 27 28 29 30 31 32 33 34 35 36 37 38 39 40 41 42 43 44 45 46 47 48 49 50
000
ASUS43 KFSD 191710
RWRSD

WEATHER ROUNDUP FOR SOUTH DAKOTA
NATIONAL WEATHER SERVICE SIOUX FALLS SD
1200 PM CDT SUN APR 19 2015

NOTE: "FAIR" INDICATES FEW OR NO CLOUDS BELOW 12,000 FEET WITH NO
SIGNIFICANT WEATHER AND/OR OBSTRUCTIONS TO VISIBILITY.


SDZ001>005-009-010-012>017-191800-
NORTHWEST AND NORTH CENTRAL SOUTH DAKOTA

CITY           SKY/WX    TMP DP  RH WIND       PRES   REMARKS
BUFFALO          N/A     48  25  40 NW41G53   29.94S
FAITH            N/A     47  29  49 NW36G43   29.97F
MOBRIDGE       PTSUNNY   49  36  61 NW29G37   29.88S
$$

SDZ012>016-024>037-041>051-057-063-072>074-191800-
SOUTHWEST AND SOUTH CENTRAL SOUTH DAKOTA

CITY           SKY/WX    TMP DP  RH WIND       PRES   REMARKS
RAPID CTY ARPT SUNNY     48  25  40 NW39G49   30.03F
PIERRE         SUNNY     51  32  48 NW28G39   29.92F
CUSTER         MOSUNNY   37  18  46 NW14G28   30.04R
ELLSWORTH AFB  MOSUNNY   47  25  41 NW31G46   30.02F
PHILIP         SUNNY     52  27  38 NW33G48   29.99F
PINE RIDGE     PTSUNNY   48  22  35 NW24G37   30.05F
SPEARFISH      MIX PCPN  41  23  48 NW28G39   30.08F
WINNER         FAIR      53  29  39 N30G41    29.93F
$$

SDZ004>011-016>023-039-040-191800-
NORTHEAST SOUTH DAKOTA

CITY           SKY/WX    TMP DP  RH WIND       PRES   REMARKS
ABERDEEN       PTSUNNY   52  34  50 NW25G32   29.83S
WATERTOWN      CLOUDY    46  40  79 NW22G31   29.77S
BROOKINGS      CLOUDY    46  43  87 N23G31    29.78S
SISSETON         N/A     50  42  74 N26G37    29.75R
$$

SDZ017-020-022-023-036>040-048>070-191800-
SOUTHEAST SOUTH DAKOTA

CITY           SKY/WX    TMP DP  RH WIND       PRES   REMARKS
SIOUX FALLS    CLOUDY    51  43  74 NW24      29.78R
HURON          CLOUDY    53  34  48 N25G37    29.84S
CHAMBERLAIN    PTSUNNY   51  32  48 NW30G38   29.91S
MITCHELL       CLOUDY    52  35  52 N30G36    29.85S
YANKTON        CLOUDY    52  39  62 NW24G31   29.83S
$$

ABBREVIATIONS USED IN REMARKS
   TC - TEMPERATURE IN CELSIUS
  WCI - WIND CHILL INDEX
   HX - HEAT INDEX
  VSB - VISIBILITY




USA.gov is the U.S. government's official web portal to all federal, state and local government web resources and services.